Hourly Weather Golawin

Today, 15 May, Saturday

Time Temperature Precipitation Wind Pressure Humidity
00:00 +10°C° 0 mm 3 mps 746 mmHg 94%
01:00 +10°C° 0 mm 3 mps 746 mmHg 94%
02:00 +10°C° 0 mm 3 mps 746 mmHg 93%
03:00 +10°C° 0 mm 3 mps 746 mmHg 93%
04:00 +10°C° 0 mm 4 mps 746 mmHg 92%
05:00 +10°C° 0 mm 4 mps 747 mmHg 89%
06:00 +10°C° 0 mm 4 mps 747 mmHg 86%
07:00 +11°C° 0 mm 4 mps 747 mmHg 87%
08:00 +12°C° 0 mm 4 mps 747 mmHg 80%
09:00 +13°C° 0 mm 5 mps 748 mmHg 74%
10:00 +14°C° 0 mm 5 mps 748 mmHg 68%
11:00 +15°C° 0 mm 5 mps 748 mmHg 63%
12:00 +17°C° 0 mm 4 mps 748 mmHg 59%
13:00 +18°C° 0 mm 4 mps 747 mmHg 55%
14:00 +18°C° 0 mm 3 mps 747 mmHg 53%
15:00 +19°C° 0 mm 3 mps 747 mmHg 52%
16:00 +19°C° 0 mm 2 mps 747 mmHg 51%
17:00 +18°C° 0 mm 2 mps 747 mmHg 56%
18:00 +18°C° 0 mm 1 mps 747 mmHg 61%
19:00 +15°C° 0 mm 1 mps 747 mmHg 67%
20:00 +14°C° 0 mm 2 mps 747 mmHg 70%
21:00 +13°C° 0 mm 2 mps 747 mmHg 72%
22:00 +12°C° 0 mm 3 mps 747 mmHg 75%
23:00 +11°C° 0 mm 3 mps 747 mmHg 77%

Tomorrow, 16 May, Sunday

Time Temperature Precipitation Wind Pressure Humidity
00:00 +11°C° 0 mm 3 mps 747 mmHg 79%
01:00 +12°C° 0 mm 2 mps 747 mmHg 81%
02:00 +11°C° 0.1 mm 3 mps 746 mmHg 84%
03:00 +11°C° 0.1 mm 3 mps 746 mmHg 88%
04:00 +12°C° 0.1 mm 3 mps 746 mmHg 91%
05:00 +12°C° 0.1 mm 3 mps 746 mmHg 91%
06:00 +12°C° 0.1 mm 3 mps 746 mmHg 91%
07:00 +12°C° 0.1 mm 3 mps 746 mmHg 92%
08:00 +13°C° 0.4 mm 3 mps 746 mmHg 87%
09:00 +14°C° 0.4 mm 3 mps 746 mmHg 83%
10:00 +16°C° 0.4 mm 3 mps 746 mmHg 79%
11:00 +17°C° 0.4 mm 2 mps 746 mmHg 75%
12:00 +18°C° 0.4 mm 2 mps 745 mmHg 71%
13:00 +20°C° 0.4 mm 1 mps 745 mmHg 67%
14:00 +18°C° 0.8 mm 2 mps 745 mmHg 72%
15:00 +17°C° 0.8 mm 2 mps 745 mmHg 77%
16:00 +16°C° 0.8 mm 3 mps 744 mmHg 83%
17:00 +14°C° 1.3 mm 3 mps 744 mmHg 87%
18:00 +14°C° 1.3 mm 2 mps 745 mmHg 91%
19:00 +13°C° 1.3 mm 2 mps 745 mmHg 95%
20:00 +12°C° 0.6 mm 2 mps 745 mmHg 95%
21:00 +12°C° 0.6 mm 2 mps 745 mmHg 95%
22:00 +12°C° 0.6 mm 1 mps 745 mmHg 96%
23:00 +10°C° 0 mm 2 mps 745 mmHg 96%

Day after tomorrow, 17 May, Monday

Time Temperature Precipitation Wind Pressure Humidity
00:00 +10°C° 0 mm 2 mps 745 mmHg 95%
01:00 +9°C° 0 mm 2 mps 745 mmHg 95%
02:00 +9°C° 0 mm 2 mps 745 mmHg 95%
03:00 +8°C° 0 mm 2 mps 745 mmHg 95%
04:00 +8°C° 0 mm 2 mps 745 mmHg 95%
05:00 +10°C° 0 mm 3 mps 745 mmHg 91%
06:00 +11°C° 0 mm 3 mps 746 mmHg 87%
07:00 +12°C° 0 mm 4 mps 746 mmHg 83%
08:00 +14°C° 0 mm 3 mps 746 mmHg 78%
09:00 +16°C° 0 mm 3 mps 746 mmHg 73%
10:00 +17°C° 0 mm 3 mps 746 mmHg 68%
11:00 +17°C° 0.4 mm 4 mps 745 mmHg 68%
12:00 +17°C° 0.4 mm 4 mps 745 mmHg 69%
13:00 +17°C° 0.4 mm 4 mps 745 mmHg 69%
14:00 +15°C° 0.4 mm 4 mps 745 mmHg 74%
15:00 +14°C° 0.4 mm 3 mps 745 mmHg 79%
16:00 +13°C° 0.4 mm 3 mps 745 mmHg 84%
17:00 +13°C° 0.1 mm 2 mps 745 mmHg 87%
18:00 +13°C° 0.1 mm 2 mps 745 mmHg 89%
19:00 +13°C° 0.1 mm 2 mps 745 mmHg 91%
20:00 +12°C° 0.8 mm 2 mps 745 mmHg 92%
21:00 +12°C° 0.8 mm 1 mps 745 mmHg 94%
22:00 +12°C° 0.8 mm 1 mps 745 mmHg 95%
23:00 +12°C° 0.3 mm 2 mps 745 mmHg 95%

18 May, Tuesday

Time Temperature Precipitation Wind Pressure Humidity
00:00 +10°C° 0.3 mm 2 mps 745 mmHg 95%
01:00 +10°C° 0.3 mm 3 mps 744 mmHg 95%
02:00 +10°C° 0 mm 3 mps 744 mmHg 96%
03:00 +9°C° 0 mm 3 mps 745 mmHg 96%
04:00 +7°C° 0 mm 4 mps 745 mmHg 97%
05:00 +8°C° 0 mm 4 mps 745 mmHg 95%
06:00 +8°C° 0 mm 5 mps 745 mmHg 94%
07:00 +9°C° 0 mm 6 mps 745 mmHg 92%
08:00 +10°C° 0 mm 6 mps 745 mmHg 87%
09:00 +11°C° 0 mm 6 mps 745 mmHg 82%
10:00 +13°C° 0 mm 6 mps 746 mmHg 77%
11:00 +13°C° 0.3 mm 6 mps 746 mmHg 75%
12:00 +14°C° 0.3 mm 6 mps 746 mmHg 72%
13:00 +15°C° 0.3 mm 6 mps 746 mmHg 69%
14:00 +14°C° 0.4 mm 6 mps 746 mmHg 72%
15:00 +13°C° 0.4 mm 6 mps 746 mmHg 76%
16:00 +13°C° 0.4 mm 6 mps 746 mmHg 80%
17:00 +12°C° 0.2 mm 5 mps 746 mmHg 82%
18:00 +12°C° 0.2 mm 5 mps 746 mmHg 85%
19:00 +10°C° 0.2 mm 5 mps 747 mmHg 87%
20:00 +9°C° 0 mm 5 mps 747 mmHg 89%
21:00 +8°C° 0 mm 5 mps 747 mmHg 91%
22:00 +8°C° 0 mm 5 mps 748 mmHg 93%
23:00 +7°C° 0 mm 4 mps 748 mmHg 94%

19 May, Wednesday

Time Temperature Precipitation Wind Pressure Humidity
00:00 +6°C° 0 mm 4 mps 748 mmHg 94%
01:00 +6°C° 0 mm 4 mps 748 mmHg 95%
02:00 +6°C° 0 mm 4 mps 748 mmHg 96%
03:00 +5°C° 0 mm 4 mps 749 mmHg 96%
04:00 +5°C° 0 mm 4 mps 749 mmHg 96%
05:00 +7°C° 0 mm 5 mps 749 mmHg 92%
06:00 +8°C° 0 mm 5 mps 749 mmHg 88%
07:00 +9°C° 0 mm 6 mps 750 mmHg 84%
08:00 +11°C° 0 mm 6 mps 750 mmHg 76%
09:00 +13°C° 0 mm 6 mps 750 mmHg 68%
10:00 +14°C° 0 mm 6 mps 750 mmHg 60%
11:00 +14°C° 0.1 mm 6 mps 750 mmHg 61%
12:00 +14°C° 0.1 mm 6 mps 750 mmHg 62%
13:00 +14°C° 0.1 mm 5 mps 750 mmHg 63%
14:00 +14°C° 0.2 mm 5 mps 750 mmHg 64%
15:00 +14°C° 0.2 mm 5 mps 750 mmHg 65%
16:00 +14°C° 0.2 mm 5 mps 750 mmHg 66%
17:00 +13°C° 0 mm 4 mps 751 mmHg 69%
18:00 +11°C° 0 mm 3 mps 751 mmHg 72%
19:00 +10°C° 0 mm 3 mps 751 mmHg 75%
20:00 +9°C° 0 mm 3 mps 751 mmHg 78%
21:00 +8°C° 0 mm 3 mps 751 mmHg 81%
22:00 +7°C° 0 mm 3 mps 751 mmHg 85%
23:00 +7°C° 0 mm 3 mps 752 mmHg 87%

20 May, Thursday

Time Temperature Precipitation Wind Pressure Humidity
00:00 +5°C° 0 mm 3 mps 752 mmHg 89%
01:00 +5°C° 0 mm 3 mps 752 mmHg 91%
02:00 +5°C° 0 mm 3 mps 752 mmHg 91%
03:00 +5°C° 0 mm 3 mps 752 mmHg 92%
04:00 +5°C° 0 mm 4 mps 752 mmHg 93%
05:00 +7°C° 0 mm 4 mps 752 mmHg 89%
06:00 +8°C° 0 mm 5 mps 752 mmHg 86%
07:00 +9°C° 0 mm 5 mps 753 mmHg 83%
08:00 +10°C° 0.1 mm 5 mps 752 mmHg 78%
09:00 +12°C° 0.1 mm 5 mps 752 mmHg 73%
10:00 +12°C° 0.1 mm 5 mps 752 mmHg 68%
11:00 +13°C° 0.3 mm 5 mps 752 mmHg 67%
12:00 +13°C° 0.3 mm 5 mps 752 mmHg 65%
13:00 +14°C° 0.3 mm 5 mps 752 mmHg 64%
14:00 +14°C° 0.2 mm 5 mps 752 mmHg 63%
15:00 +14°C° 0.2 mm 5 mps 752 mmHg 62%
16:00 +14°C° 0.2 mm 5 mps 752 mmHg 61%
17:00 +13°C° 0.1 mm 4 mps 752 mmHg 67%
18:00 +12°C° 0.1 mm 3 mps 751 mmHg 73%
19:00 +12°C° 0.1 mm 2 mps 751 mmHg 79%
20:00 +10°C° 0 mm 2 mps 751 mmHg 81%
21:00 +10°C° 0 mm 3 mps 751 mmHg 83%
22:00 +9°C° 0 mm 3 mps 751 mmHg 86%
23:00 +9°C° 0 mm 3 mps 750 mmHg 86%
Show more